"Pseudo-MPEC" for P22papH

Created 2026 Aug 11 11:35:21 UT using Find_Orb

Click here for an explanation of pseudo-MPECs

 
 Astrometry: 
     P22papH 0C2026 07 08.56252622 29 41.347-09 25 24.91   ~8BBK 22.35GVNEOCPF51
     P22papH 0C2026 07 08.57488622 29 40.632-09 25 02.85   ~8BBK 21.92GVNEOCPF51
     P22papH 0C2026 07 08.58727022 29 39.880-09 24 40.88   ~8BBK 21.93GVNEOCPF51
     P22papH 0C2026 07 08.59964222 29 39.136-09 24 18.53   ~8BBK 22.39GVNEOCPF51
     P22papH 0C2026 07 24.49115122 06 04.921-00 59 26.25   ~8BBK 21.70GVNEOCPF51
     P22papH 0C2026 07 24.50303022 06 03.336-00 59 02.20   ~8BBK 20.95GVNEOCPF51
     P22papH 0C2026 07 24.51492622 06 01.783-00 58 38.97   ~8BBK 21.57GVNEOCPF51
     P22papH 0C2026 07 24.52682522 06 00.215-00 58 15.20   ~8BBK 21.38GVNEOCPF51
     P22papH 0C2026 07 26.47499022 01 50.946+00 06 09.34   ~8BBK 21.67GVNEOCPF51
     P22papH 0C2026 07 26.48844122 01 49.080+00 06 36.26   ~8BBK 21.16GVNEOCPF51
     P22papH 0C2026 07 26.50151022 01 47.228+00 07 02.57   ~8BBK 21.84GVNEOCPF51
     P22papH 0C2026 08 06.42113821 34 33.505+05 55 53.86   ~8BBK 21.64GVNEOCPF51
     P22papH 0C2026 08 06.44489621 34 29.440+05 56 36.49   ~8BBK 21.79GVNEOCPF51
     P22papH 0C2026 08 06.45686021 34 27.395+05 56 58.05   ~8BBK 21.61GVNEOCPF51
     P22papH*0C2026 08 11.36599721 20 55.075+08 16 36.41   ~8BB5 21.56wXNEOCPF52
     P22papH 0C2026 08 11.38783021 20 51.268+08 17 11.76   ~8BB5 22.16wXNEOCPF52
     P22papH 0C2026 08 11.39884721 20 49.350+08 17 29.59   ~8BB5 21.59wXNEOCPF52

Station data:
(F51) Pan-STARRS 1, Haleakala  (N20.707234 W156.255910)  US/Hawaii.
   Observers J. Herman, T. Lowe, P. Minguez, A. Schultz, I. Smith. Measurers
   K. Chambers, T. de Boer, J. Fairlamb, H. Gao, M. Huber, C.-C. Lin, E.
   Magnier, Y. Ramanjooloo, R. Wainscoat, R. Weryk. 1.8-m Ritchey-Chrétien +
   CCD.
(F52) Pan-STARRS 2, Haleakala  (N20.707382 W156.255910)  US/Hawaii.
   Observers J. Herman, T. Lowe, P. Minguez, A. Schultz, I. Smith. Measurers
   K. Chambers, T. de Boer, J. Fairlamb, H. Gao, M. Huber, C.-C. Lin, E.
   Magnier, Y. Ramanjooloo, R. Wainscoat, R. Weryk. 1.8-m Ritchey-Chrétien +
   CCD.

Orbital elements:  P22papH
   Perihelion 2027 May 5.376019 +/- 0.00849 TT =  9:01:28.0 (JD 2461530.876019)
Epoch 2026 Aug 11.0 TT = JDT 2461263.5   Earth MOID: 0.2470   Ma: 0.0054
M 186.961678131 +/- 0.0049          (J2000 ecliptic)             AutoNEOCP
n   0.647172183 +/- 1.41e-5         Peri.  192.814869 +/- 0.0044
a   1.323699752 +/- 1.92e-5         Node   302.437188 +/- 0.00048
e   0.07106469 +/- 4.11e-6          Incl.   20.840006 +/- 0.0009
P   1.523/556.256d         H 21.77  G  0.15   U  5.2
q 1.229631430 +/- 2.2e-5    Q 1.417768075 +/- 1.71e-5
From 17 observations 2026 July 8-Aug. 11; mean residual 0".14
Residuals in arcseconds: 
260708 F51  .16-  .01+    260724 F51  .04+  .08-    260806 F51  .10+  .10-    
260708 F51  .19+  .01+    260724 F51  .05+  .09+    260806 F51  .14+  .04-    
260708 F51  .02+  .15-    260726 F51  .07-  .29-    260811 F52  .12-  .07-    
260708 F51  .03-  .08+    260726 F51  .11+  .04-    260811 F52  .11-  .03+    
260724 F51  .15+  .20-    260726 F51  .28-  .36+    260811 F52  .01-  .10+    
260724 F51  .17-  .29+    260806 F51  .13+  .00     

Ephemerides (geocentric):
Date (UTC) HH   RA             Dec           delta  r     elong  mag " sig PA
---- --------  ------------   ------------  ------ ------ -----  --- --------
2026 08 11 12  21 20 32.179   +08 20 16.21  .42913 1.4171 156.4 21.6 .058  36
2026 08 11 13  21 20 25.228   +08 21 22.94  .42915 1.4171 156.4 21.6 .059  35
2026 08 11 14  21 20 18.278   +08 22 29.60  .42917 1.4171 156.3 21.6 .059  35
2026 08 11 15  21 20 11.328   +08 23 36.18  .42919 1.4171 156.3 21.6 .060  35
2026 08 11 16  21 20 04.378   +08 24 42.68  .42921 1.4171 156.3 21.6 .061  35
2026 08 11 17  21 19 57.428   +08 25 49.11  .42923 1.4171 156.3 21.6 .061  35
2026 08 11 18  21 19 50.478   +08 26 55.46  .42926 1.4171 156.3 21.6 .062  35
2026 08 11 19  21 19 43.529   +08 28 01.73  .42928 1.4171 156.3 21.6 .062  34
2026 08 11 20  21 19 36.580   +08 29 07.93  .42930 1.4171 156.3 21.6 .063  34
2026 08 11 21  21 19 29.631   +08 30 14.04  .42933 1.4171 156.3 21.6 .063  34
2026 08 11 22  21 19 22.683   +08 31 20.09  .42935 1.4171 156.3 21.6 .064  34
2026 08 11 23  21 19 15.735   +08 32 26.05  .42938 1.4171 156.3 21.6 .064  34
2026 08 12 00  21 19 08.787   +08 33 31.94  .42940 1.4170 156.3 21.6 .065  34
2026 08 12 01  21 19 01.840   +08 34 37.75  .42943 1.4170 156.2 21.6 .066  33
2026 08 12 02  21 18 54.893   +08 35 43.48  .42945 1.4170 156.2 21.6 .066  33
2026 08 12 03  21 18 47.947   +08 36 49.14  .42948 1.4170 156.2 21.6 .067  33
2026 08 12 04  21 18 41.001   +08 37 54.71  .42951 1.4170 156.2 21.6 .067  33
2026 08 12 05  21 18 34.056   +08 39 00.21  .42953 1.4170 156.2 21.6 .068  33
2026 08 12 06  21 18 27.111   +08 40 05.63  .42956 1.4170 156.2 21.6 .068  33
2026 08 12 07  21 18 20.167   +08 41 10.98  .42959 1.4170 156.2 21.6 .069  33
2026 08 12 08  21 18 13.223   +08 42 16.24  .42962 1.4170 156.2 21.6 .070  32
2026 08 12 09  21 18 06.280   +08 43 21.43  .42964 1.4170 156.2 21.6 .070  32
2026 08 12 10  21 17 59.338   +08 44 26.53  .42967 1.4170 156.1 21.6 .071  32
2026 08 12 11  21 17 52.396   +08 45 31.56  .42970 1.4170 156.1 21.6 .071  32
2026 08 12 12  21 17 45.455   +08 46 36.51  .42973 1.4170 156.1 21.6 .072  32
2026 08 12 13  21 17 38.515   +08 47 41.38  .42976 1.4170 156.1 21.6 .072  32
2026 08 12 14  21 17 31.575   +08 48 46.17  .42979 1.4170 156.1 21.6 .073  31
2026 08 12 15  21 17 24.636   +08 49 50.89  .42982 1.4170 156.1 21.6 .074  31
2026 08 12 16  21 17 17.698   +08 50 55.52  .42985 1.4170 156.1 21.6 .074  31
2026 08 12 17  21 17 10.761   +08 52 00.07  .42988 1.4170 156.1 21.6 .075  31
2026 08 12 18  21 17 03.824   +08 53 04.55  .42992 1.4170 156.0 21.6 .075  31
2026 08 12 19  21 16 56.889   +08 54 08.94  .42995 1.4169 156.0 21.6 .076  31
2026 08 12 20  21 16 49.954   +08 55 13.26  .42998 1.4169 156.0 21.6 .076  31
2026 08 12 21  21 16 43.020   +08 56 17.50  .43001 1.4169 156.0 21.6 .077  31
2026 08 12 22  21 16 36.087   +08 57 21.65  .43005 1.4169 156.0 21.6 .078  30
2026 08 12 23  21 16 29.155   +08 58 25.73  .43008 1.4169 156.0 21.6 .078  30
2026 08 13 00  21 16 22.224   +08 59 29.72  .43011 1.4169 156.0 21.6 .079  30
2026 08 13 01  21 16 15.294   +09 00 33.64  .43015 1.4169 155.9 21.6 .079  30
2026 08 13 02  21 16 08.364   +09 01 37.47  .43018 1.4169 155.9 21.6 .080  30
2026 08 13 03  21 16 01.436   +09 02 41.23  .43022 1.4169 155.9 21.6 .081  30
2026 08 13 04  21 15 54.509   +09 03 44.90  .43025 1.4169 155.9 21.6 .081  30
2026 08 13 05  21 15 47.583   +09 04 48.49  .43029 1.4169 155.9 21.6 .082  29
2026 08 13 06  21 15 40.659   +09 05 52.01  .43032 1.4169 155.9 21.6 .082  29
2026 08 13 07  21 15 33.735   +09 06 55.44  .43036 1.4169 155.9 21.6 .083  29
2026 08 13 08  21 15 26.812   +09 07 58.79  .43040 1.4169 155.8 21.6 .084  29
2026 08 13 09  21 15 19.891   +09 09 02.06  .43043 1.4169 155.8 21.6 .084  29
2026 08 13 10  21 15 12.971   +09 10 05.25  .43047 1.4169 155.8 21.6 .085  29
2026 08 13 11  21 15 06.052   +09 11 08.35  .43051 1.4169 155.8 21.6 .085  29